COSMOS 2433 (720) 1 32275U 07052A 26161.34601998 -.00000036 00000+0 00000+0 0 9997 2 32275 65.5812 316.1640 0002208 192.0449 167.9466 2.13104355144912 COSMOS 2432 (719) 1 32276U 07052B 26160.45302045 -.00000032 00000+0 00000+0 0 9996 2 32276 65.5988 316.3216 0007853 333.7560 5.0648 2.13103447144912 COSMOS 2434 (721) 1 32393U 07065A 26158.24705932 .00000085 00000+0 00000+0 0 9993 2 32393 64.3173 192.2510 0001095 341.2525 51.1973 2.13101527143560 COSMOS 2436 (723) 1 32395U 07065C 26160.14161100 .00000105 00000+0 00000+0 0 9993 2 32395 64.3259 192.2593 0017246 354.2289 184.0033 2.13100327143553 COSMOS 2456 (730) 1 36111U 09070A 26161.51650904 -.00000029 00000+0 00000+0 0 9994 2 36111 65.0072 71.1996 0004845 328.3818 210.3828 2.13103917128283 COSMOS 2457 (733) 1 36112U 09070B 26160.40724309 -.00000024 00000+0 00000+0 0 9998 2 36112 64.9923 71.0818 0002473 128.0679 47.1802 2.13101358128267 COSMOS 2460 (732) 1 36402U 10007C 26156.93373906 -.00000030 00000+0 00000+0 0 9995 2 36402 65.4275 314.8474 0002122 103.7485 288.7249 2.13101712126492 COSMOS 2476 (744) 1 37867U 11064A 26160.70031370 -.00000023 00000+0 00000+0 0 9993 2 37867 65.2659 73.1242 0022983 239.4709 301.4642 2.13104033113601 COSMOS 2477 (745) 1 37868U 11064B 26160.39259507 -.00000021 00000+0 00000+0 0 9991 2 37868 65.2721 73.2137 0019994 240.7099 244.5150 2.13103206113591 COSMOS 2475 (743) 1 37869U 11064C 26160.51871549 -.00000022 00000+0 00000+0 0 9993 2 37869 65.2789 73.2312 0025812 253.5713 283.5609 2.13102025113604 COSMOS 2485 (747) 1 39155U 13019A 26158.05554720 -.00000009 00000+0 00000+0 0 9995 2 39155 65.4143 73.9444 0023464 234.9067 124.8959 2.13103506102067 COSMOS 2492 (754) 1 39620U 14012A 26160.36073044 -.00000033 00000+0 00000+0 0 9995 2 39620 65.3026 314.2024 0010486 325.9791 33.9512 2.13103521 95077 COSMOS 2500 (755) 1 40001U 14032A 26160.53058751 -.00000034 00000+0 00000+0 0 9990 2 40001 65.2371 313.9442 0007081 183.5959 176.3964 2.13106105 93291 COSMOS 2501 (702K) 1 40315U 14075A 26160.32331928 .00000109 00000+0 00000+0 0 9994 2 40315 63.6158 190.6443 0022473 212.2153 147.7161 2.13101469 89680 COSMOS 2514 (751) 1 41330U 16008A 26160.77701432 -.00000035 00000+0 00000+0 0 9999 2 41330 65.0265 313.2609 0010997 197.5270 162.4316 2.13102597 80469 COSMOS 2522 (752) 1 42939U 17055A 26160.14556870 .00000105 00000+0 00000+0 0 9990 2 42939 64.0782 192.1582 0010681 240.1429 119.8211 2.13102030 67808 COSMOS 2527 (756) 1 43508U 18053A 26160.10720758 -.00000018 00000+0 00000+0 0 9990 2 43508 65.5731 74.1771 0007419 241.4436 118.5010 2.13102340 62102 COSMOS 2529 (757) 1 43687U 18086A 26160.20377877 .00000105 00000+0 00000+0 0 9991 2 43687 64.2943 192.8640 0011758 256.1207 103.8195 2.13102176 59119 COSMOS 2534 (758) 1 44299U 19030A 26161.11031736 .00000113 00000+0 00000+0 0 9992 2 44299 64.3680 192.8548 0013313 275.0224 194.9513 2.13102455 54775 COSMOS 2544 (759) 1 44850U 19088A 26160.05192801 -.00000018 00000+0 00000+0 0 9996 2 44850 65.5611 74.0023 0013578 259.5106 100.3561 2.13102205 50541 COSMOS 2545 (760) 1 45358U 20018A 26158.83918744 -.00000031 00000+0 00000+0 0 9995 2 45358 64.3612 312.7475 0007948 231.5141 128.4125 2.13102843 48462 COSMOS 2547 (705K) 1 46805U 20075A 26161.37497828 .00000116 00000+0 00000+0 0 9997 2 46805 64.5989 192.7031 0009223 239.6715 120.3114 2.13100307 43767 COSMOS 2557 (706K) 1 52984U 22075A 26160.13153050 -.00000034 00000+0 00000+0 0 9993 2 52984 64.3021 314.7692 0010229 275.2232 84.6583 2.13102144 30549 COSMOS 2559 (707K) 1 54031U 22130A 26159.95114162 -.00000034 00000+0 00000+0 0 9999 2 54031 64.2767 314.8589 0012420 178.5990 181.4033 2.13101700 28514 COSMOS 2564 (761) 1 54377U 22161A 26161.20223190 .00000114 00000+0 00000+0 0 9997 2 54377 64.7411 192.9437 0012104 224.4507 135.5259 2.13102018 27487 COSMOS 2569 (703K) 1 57517U 23114A 26160.74529625 -.00000023 00000+0 00000+0 0 9995 2 57517 65.2980 72.8714 0010917 296.9061 63.0019 2.13103658 22100 COSMOS 2584 (704K) 1 63130U 25042A 26159.22437978 -.00000015 00000+0 00000+0 0 9996 2 63130 65.0792 73.1067 0005828 228.4476 131.5246 2.13103875 9858 COSMOS 2596 (708K) 1 65590U 25206B 26160.94699288 -.00000037 00000+0 00000+0 0 9999 2 65590 64.6381 315.2379 0011083 312.6704 45.2644 2.13100671 5754